This is the latest recevied weather packets stored in our database for station/object G0TRT-13. If no packets are shown the sender has not sent any weather packets the latest 10 day(s).
| Time | Temp. | Humidity | Pressure | Rain* | Wind** | Luminosity | Snow |
|---|---|---|---|---|---|---|---|
| 1777389424 | 13.33° C | 68% | 1023.5 hPa | 0 mm | - | - | - |
| 1777389123 | 13.89° C | 68% | 1023.5 hPa | 0 mm | - | - | - |
| 1777388823 | 13.89° C | 67% | 1023.5 hPa | 0 mm | - | - | - |
| 1777388523 | 13.89° C | 68% | 1023.6 hPa | 0 mm | - | - | - |
| 1777388222 | 13.89° C | 69% | 1023.6 hPa | 0 mm | - | - | - |
| 1777387923 | 13.33° C | 70% | 1023.7 hPa | 0 mm | - | - | - |
| 1777387623 | 13.33° C | 70% | 1023.8 hPa | 0 mm | - | - | - |
| 1777387323 | 12.78° C | 71% | 1023.7 hPa | 0 mm | - | - | - |
| 1777387023 | 12.78° C | 73% | 1023.8 hPa | 0 mm | - | - | - |
| 1777386723 | 12.22° C | 75% | 1023.9 hPa | 0 mm | - | - | - |
| 1777386422 | 11.67° C | 75% | 1023.9 hPa | 0 mm | - | - | - |
| 1777386122 | 11.67° C | 74% | 1024.1 hPa | 0 mm | - | - | - |
| 1777385822 | 11.67° C | 76% | 1024.1 hPa | 0 mm | - | - | - |
| 1777385524 | 11.67° C | 75% | 1024.1 hPa | 0 mm | - | - | - |
| 1777385223 | 11.11° C | 76% | 1024.1 hPa | 0 mm | - | - | - |
| 1777384923 | 11.11° C | 76% | 1024.3 hPa | 0 mm | - | - | - |
| 1777384623 | 11.11° C | 77% | 1024.4 hPa | 0 mm | - | - | - |
| 1777384325 | 10.56° C | 78% | 1024.3 hPa | 0 mm | - | - | - |
| 1777384020 | 10.56° C | 78% | 1024.3 hPa | 0 mm | - | - | - |
| 1777383719 | 10.56° C | 79% | 1024.4 hPa | 0 mm | - | - | - |
| 1777383418 | 10.56° C | 79% | 1024.5 hPa | 0 mm | - | - | - |
| 1777383117 | 10° C | 79% | 1024.6 hPa | 0 mm | - | - | - |
| 1777382815 | 10° C | 79% | 1024.7 hPa | 0 mm | - | - | - |
| 1777382516 | 10° C | 79% | 1024.8 hPa | 0 mm | - | - | - |
| 1777382213 | 10° C | 79% | 1024.8 hPa | 0 mm | - | - | - |
* Rain latest hour (hover to see other rain measurements)
** Current wind speed in m/s (hover to see current wind gust speed)